Weather History for KGNV - November, 2012

Change the Weather History Date:

Sunday, November 4, 2012

  Actual Average Record
Temperature  
Mean Temperature 67 °F 66 °F  
Max Temperature 79 °F 77 °F 90 °F (1936)
Min Temperature 55 °F 54 °F 29 °F (1966)
Degree Days  
Heating Degree Days 0 3  
Month to date heating degree days 7 10  
Since 1 July heating degree days 35 37  
Cooling Degree Days 2 3  
Month to date cooling degree days 6 14  
Year to date cooling degree days 2952 2564  
Growing Degree Days 17 (Base 50)    
Moisture  
Dew Point 60 °F    
Average Humidity 76    
Maximum Humidity 100    
Minimum Humidity 52    
Precipitation  
Precipitation 0.00 in 0.06 in 0.94 in (1894)
Month to date precipitation T 0.27  
Year to date precipitation 49.26 43.14  
Snow  
Snow 0.00 in 0.00 in 0.00 in ()
Month to date snowfall 0.0 0.0  
Since 1 July snowfall 0.0 0.0  
Since 1 September snowfall 0.0 0.0  
Snow Depth 0.00 in    
Sea Level Pressure  
Sea Level Pressure 30.07 in    
Wind  
Wind Speed 5 mph (SW)    
Max Wind Speed 13 mph    
Max Gust Speed 18 mph    
Visibility 6 miles    
Events Fog    
T = Trace of Precipitation, MM = Missing Value Source: NWS Daily Summary

Daily Weather History Graph

Daily Weather History Graph

Search for Another Location

Airport or City:

Trip Planner

Search our weather history database for the weather conditions in past years. The results will help you decide how hot, cold, wet, or windy it might be!

Date:

Astronomy

Nov. 04, 2012 Rise Set
Actual Time 6:45 AM EST 5:39 PM EST
Civil Twilight 6:20 AM EST 6:04 PM EST
Nautical Twilight 5:52 AM EST 6:32 PM EST
Astronomical Twilight 5:24 AM EST 7:00 PM EST
Moon 10:20 PM EST (11/4) 11:23 AM EST (11/4)
Length of Visible Light 11h 44m
Length of Day
10h 54m
Waning Gibbous, 72% of the Moon is Illuminated
Nov 4
Waning Gibbous
Nov 6
Last Quarter
Nov 13
New
Nov 20
First Quarter
Nov 28
Full

Hourly Weather History & Observations

Time (EST) Temp. Dew Point Humidity Pressure Visibility Wind Dir Wind Speed Gust Speed Precip Events Conditions
12:53 AM 57.9 °F 55.0 °F 90% 30.09 in 6.0 mi Calm Calm - N/A   Clear
1:13 AM 57.2 °F 55.4 °F 94% 30.10 in 9.0 mi Calm Calm - N/A   Scattered Clouds
1:24 AM 57.2 °F 55.4 °F 94% 30.10 in 7.0 mi Calm Calm - N/A   Mostly Cloudy
1:35 AM 57.2 °F 53.6 °F 88% 30.10 in 7.0 mi Calm Calm - N/A   Overcast
1:53 AM 57.0 °F 55.0 °F 93% 30.10 in 5.0 mi Calm Calm - N/A   Overcast
1:10 AM 57.2 °F 55.4 °F 94% 30.10 in 6.0 mi Calm Calm - N/A   Scattered Clouds
1:38 AM 55.4 °F 55.4 °F 100% 30.10 in 4.0 mi Calm Calm - N/A   Mostly Cloudy
1:53 AM 57.9 °F 55.9 °F 93% 30.09 in 6.0 mi Calm Calm - N/A   Overcast
2:02 AM 57.2 °F 55.4 °F 94% 30.09 in 0.2 mi Calm Calm - N/A Fog Fog
2:53 AM 57.0 °F 55.9 °F 96% 30.09 in 0.2 mi Calm Calm - N/A Fog Fog
3:53 AM 57.9 °F 57.0 °F 97% 30.09 in 0.2 mi Calm Calm - N/A Fog Fog
4:53 AM 57.9 °F 57.0 °F 97% 30.09 in 0.2 mi Calm Calm - N/A Fog Fog
5:53 AM 57.0 °F 55.9 °F 96% 30.10 in 0.2 mi Calm Calm - N/A Fog Fog
6:53 AM 57.9 °F 57.9 °F 100% 30.10 in 0.2 mi Calm Calm - N/A Fog Fog
7:35 AM 60.8 °F 60.8 °F 100% 30.11 in 0.2 mi WSW 4.6 mph - N/A Fog Fog
7:53 AM 61.0 °F 61.0 °F 100% 30.12 in 0.2 mi SW 3.5 mph - N/A Fog Fog
8:48 AM 62.6 °F 62.6 °F 100% 30.12 in 0.5 mi WSW 3.5 mph - N/A Fog Fog
8:53 AM 63.0 °F 63.0 °F 100% 30.12 in 0.8 mi SW 3.5 mph - N/A   Overcast
9:08 AM 64.4 °F 62.6 °F 94% 30.12 in 1.2 mi Calm Calm - N/A   Overcast
9:19 AM 64.4 °F 64.4 °F 100% 30.12 in 2.5 mi SW 3.5 mph - N/A   Overcast
9:29 AM 64.4 °F 64.4 °F 100% 30.12 in 4.0 mi SSW 3.5 mph - N/A   Overcast
9:53 AM 64.9 °F 64.0 °F 97% 30.11 in 6.0 mi South 5.8 mph - N/A   Overcast
10:22 AM 68.0 °F 64.4 °F 88% 30.11 in 9.0 mi South 5.8 mph - N/A   Partly Cloudy
10:53 AM 71.1 °F 64.0 °F 78% 30.10 in 10.0 mi SSW 4.6 mph - N/A   Clear
11:53 AM 75.0 °F 64.0 °F 69% 30.08 in 10.0 mi West 8.1 mph - N/A   Clear
12:53 PM 75.9 °F 63.0 °F 64% 30.05 in 10.0 mi West 8.1 mph - N/A   Clear
1:53 PM 78.1 °F 59.0 °F 52% 30.02 in 10.0 mi SW 8.1 mph - N/A   Clear
2:53 PM 79.0 °F 59.0 °F 50% 30.01 in 10.0 mi SW 9.2 mph - N/A   Clear
3:53 PM 78.1 °F 59.0 °F 52% 30.00 in 10.0 mi WSW 4.6 mph - N/A   Mostly Cloudy
4:53 PM 75.9 °F 59.0 °F 56% 29.99 in 10.0 mi West 8.1 mph - N/A   Clear
5:53 PM 72.0 °F 60.1 °F 66% 30.01 in 10.0 mi WSW 8.1 mph - N/A   Clear
6:53 PM 70.0 °F 62.1 °F 76% 30.01 in 10.0 mi SW 6.9 mph - N/A   Clear
7:53 PM 68.0 °F 63.0 °F 84% 30.02 in 10.0 mi SW 6.9 mph - N/A   Clear
8:53 PM 64.9 °F 63.0 °F 93% 30.02 in 6.0 mi WSW 5.8 mph - N/A   Mostly Cloudy
9:23 PM 66.2 °F 64.4 °F 94% 30.02 in 7.0 mi WSW 6.9 mph - N/A   Overcast
9:53 PM 66.9 °F 64.0 °F 90% 30.02 in 8.0 mi SW 5.8 mph - N/A   Overcast
10:53 PM 66.9 °F 64.0 °F 90% 30.01 in 8.0 mi SW 8.1 mph - N/A   Mostly Cloudy